Modesto, Modesto City-County-Sham Field, United States
Lat: 37.62N, Lon: 120.95W
Local Info
Past Weather Observations for Yesterday

NOTE: This archive is for the closest National Weather Service station to Modesto, Modesto City-County-Sham Field. Information may differ from the station used for current weather conditions.

Click here for Long-term Archive

Time Weather Temperature Dewpoint Humidity Pressure Winds Precip Visibility
23:53
Clear
46°F / 8°C 43°F / 6°C 87% 29.98 in
(1015 mb)
SE 3.5 mph
(SE 6 kph)
- 10SM
22:53
Clear
46°F / 8°C 43°F / 6°C 87% 29.98 in
(1015 mb)
ESE 5.8 mph
(ESE 9 kph)
- 10SM
21:53
Clear
46°F / 8°C 43°F / 6°C 87% 29.98 in
(1015 mb)
SE 5.8 mph
(SE 9 kph)
- 10SM
20:53
Clear
50°F / 10°C 43°F / 6°C 76% 29.95 in
(1014 mb)
Calm - 10SM
19:53
Clear
52°F / 11°C 41°F / 5°C 67% 29.92 in
(1013 mb)
SE 4.6 mph
(SE 7 kph)
- 10SM
18:53
Mostly Cloudy
57°F / 14°C 39°F / 4°C 51% 29.89 in
(1012 mb)
S 4.6 mph
(S 7 kph)
- 10SM
17:53
Clear
57°F / 14°C 39°F / 4°C 51% 29.83 in
(1010 mb)
SSE 4.6 mph
(SSE 7 kph)
- 10SM
16:53
Clear
59°F / 15°C 39°F / 4°C 48% 29.83 in
(1010 mb)
SSE 10.4 mph
(SSE 17 kph)
- 10SM
15:53
Partly Cloudy
63°F / 17°C 39°F / 4°C 42% 29.8 in
(1009 mb)
SSE 15 mph
(SSE 24 kph)
- 10SM
14:53
Partly Cloudy
63°F / 17°C 39°F / 4°C 42% 29.8 in
(1009 mb)
SSE 13.8 mph
(SSE 22 kph)
- 10SM
13:53
Mostly Cloudy
63°F / 17°C 43°F / 6°C 49% 29.8 in
(1009 mb)
SE 6.9 mph
(SE 11 kph)
- 10SM
12:53
Partly Cloudy
63°F / 17°C 45°F / 7°C 52% 29.8 in
(1009 mb)
SE 12.7 mph
(SE 20 kph)
- 10SM
11:53
Mostly Cloudy
61°F / 16°C 45°F / 7°C 55% 29.83 in
(1010 mb)
SE 12.7 mph
(SE 20 kph)
- 10SM
10:53
Clear
59°F / 15°C 43°F / 6°C 55% 29.83 in
(1010 mb)
SE 13.8 mph
(SE 22 kph)
- 10SM
09:53
Clear
57°F / 14°C 43°F / 6°C 59% 29.83 in
(1010 mb)
SE 17.3 mph
(SE 28 kph)
- 10SM
08:53
Clear
54°F / 12°C 45°F / 7°C 72% 29.83 in
(1010 mb)
SE 9.2 mph
(SE 15 kph)
- 10SM
07:53
Partly Cloudy
48°F / 9°C 43°F / 6°C 82% 29.83 in
(1010 mb)
SSE 9.2 mph
(SSE 15 kph)
- 10SM
06:53
Partly Cloudy
46°F / 8°C 41°F / 5°C 82% 29.83 in
(1010 mb)
SE 5.8 mph
(SE 9 kph)
- 10SM
05:53
Mostly Cloudy
46°F / 8°C 41°F / 5°C 82% 29.83 in
(1010 mb)
Calm - 10SM
04:53
Partly Cloudy
46°F / 8°C 41°F / 5°C 82% 29.83 in
(1010 mb)
SE 6.9 mph
(SE 11 kph)
- 10SM
03:53
Overcast
48°F / 9°C 41°F / 5°C 76% 29.83 in
(1010 mb)
SE 4.6 mph
(SE 7 kph)
- 10SM
02:53
Clear
43°F / 6°C 39°F / 4°C 87% 29.86 in
(1011 mb)
SE 9.2 mph
(SE 15 kph)
- 9SM
01:53
Mostly Cloudy
46°F / 8°C 41°F / 5°C 82% 29.89 in
(1012 mb)
ESE 5.8 mph
(ESE 9 kph)
- 10SM
00:53
Clear
45°F / 7°C 41°F / 5°C 87% 29.92 in
(1013 mb)
SE 5.8 mph
(SE 9 kph)
- 10SM
Time Weather Temperature Dewpoint Humidity Pressure Winds Precip Visibility


Weather for websites

WeatherForYou.com, LLC is not responsible for any damages or problems caused by this service. Current weather conditions are obtained from the closest station including government and personal stations which may have varying degrees of accuracy. Weather forecasts are derived from the NOAA NDFD. Like all things, this site belongs to Jesus Christ... He just trusts me to maintain it. If you have any questions or comments email webmaster@weatherforyou.com

Copyright © 2015, WeatherForYou.com LLC. All rights reserved.